FW9685 Weather Reports


Display with metric or nautical units.
time (UTC)temp
F
wind
direction
speed
MPH
gust
MPH
rain 1hr
in
rain 24hr
in
rain mn
in
humidity
%
barometer
mb
20260902070106 80 155 5.0 8.0 0.00 0.00 0.00 42 1017.9
20260902064612 80 142 7.0 8.0 0.00 0.00 0.00 41 1017.9
20260902063106 81 130 6.0 8.0 0.00 0.00 0.00 40 1018.1
20260902060125 82 144 6.0 9.0 0.00 0.00 0.00 38 1018.0
20260902054602 83 144 7.0 11.0 0.00 0.00 0.00 37 1018.0
20260902053124 83 146 8.0 12.0 0.00 0.00 0.00 37 1017.8
20260902051606 84 136 8.0 12.0 0.00 0.00 0.00 36 1017.8
20260902050112 84 128 8.0 12.0 0.00 0.00 0.00 36 1017.7
20260902044603 85 123 9.0 12.0 0.00 0.00 0.00 35 1017.8
20260902043102 86 137 10.0 14.0 0.00 0.00 0.00 34 1017.9
20260902041603 87 127 9.0 14.0 0.00 0.00 0.00 34 1017.9
20260902040106 87 129 12.0 17.0 0.00 0.00 0.00 34 1017.9
20260902034607 87 134 9.0 12.0 0.00 0.00 0.00 34 1017.6
20260902033110 87 133 10.0 15.0 0.00 0.00 0.00 33 1017.3
20260902031604 88 141 9.0 12.0 0.00 0.00 0.00 33 1017.3
20260902024609 88 124 8.0 11.0 0.00 0.00 0.00 33 1016.9
20260902023058 88 132 8.0 11.0 0.00 0.00 0.00 32 1016.5
20260902021615 89 131 9.0 14.0 0.00 0.00 0.00 31 1016.4
20260902014600 90 128 8.0 13.0 0.00 0.00 0.00 31 1016.0
20260902013105 91 111 12.0 16.0 0.00 0.00 0.00 31 1015.8
20260902011603 91 127 11.0 16.0 0.00 0.00 0.00 30 1015.9
20260902010108 92 120 15.0 20.0 0.00 0.00 0.00 30 1015.8
20260902004608 92 101 14.0 18.0 0.00 0.00 0.00 29 1015.7
20260902003105 93 129 16.0 21.0 0.00 0.00 0.00 29 1015.8
20260902001604 93 119 10.0 14.0 0.00 0.00 0.00 28 1015.8
20260902000105 94 144 12.0 16.0 0.00 0.00 0.00 28 1015.8
20260901234604 94 102 10.0 16.0 0.00 0.00 0.00 28 1015.9
20260901233110 94 136 13.0 21.0 0.00 0.00 0.00 27 1015.7
20260901231605 95 134 13.0 24.0 0.00 0.00 0.00 27 1015.3
20260901230108 94 128 15.0 22.0 0.00 0.00 0.00 28 1015.5
20260901224605 95 201 5.0 16.0 0.00 0.00 0.00 27 1015.5
20260901223104 95 136 7.0 16.0 0.00 0.00 0.00 27 1015.6
20260901221601 95 145 7.0 14.0 0.00 0.00 0.00 27 1016.0
20260901220110 94 151 6.0 16.0 0.00 0.00 0.00 29 1015.9
20260901214611 94 176 6.0 16.0 0.00 0.00 0.00 28 1016.1
20260901213103 93 167 10.0 16.0 0.00 0.00 0.00 29 1016.2
20260901211600 93 153 5.0 16.0 0.00 0.00 0.00 29 1016.5
20260901210108 94 173 10.0 15.0 0.00 0.00 0.00 29 1016.8
20260901204605 94 169 7.0 15.0 0.00 0.00 0.00 29 1017.2
20260901203105 94 116 9.0 18.0 0.00 0.00 0.00 29 1017.4
20260901201603 94 115 10.0 22.0 0.00 0.00 0.00 30 1017.5
20260901200109 92 123 8.0 15.0 0.00 0.00 0.00 32 1017.8
20260901194612 93 133 15.0 21.0 0.00 0.00 0.00 31 1017.9
20260901193111 94 138 14.0 22.0 0.00 0.00 0.00 31 1018.0
20260901191608 93 127 8.0 23.0 0.00 0.00 0.00 34 1018.0
20260901190120 93 143 10.0 19.0 0.00 0.00 0.00 33 1018.1
20260901184602 92 138 11.0 23.0 0.00 0.00 0.00 34 1018.3
20260901183106 91 142 8.0 18.0 0.00 0.00 0.00 35 1018.8
20260901181605 91 146 8.0 16.0 0.00 0.00 0.00 38 1018.7
20260901174606 89 154 10.0 19.0 0.00 0.00 0.00 41 1019.0
20260901173107 89 169 9.0 18.0 0.00 0.00 0.00 42 1019.1
20260901171610 88 149 10.0 19.0 0.00 0.00 0.00 43 1019.2
20260901170107 87 146 9.0 20.0 0.00 0.00 0.00 46 1019.3
20260901164601 87 178 9.0 16.0 0.00 0.00 0.00 45 1019.7
20260901163104 85 170 13.0 21.0 0.00 0.00 0.00 48 1019.4
20260901161603 85 173 10.0 22.0 0.00 0.00 0.00 49 1019.4
20260901160111 84 190 9.0 19.0 0.00 0.00 0.00 50 1019.0
20260901154608 84 165 9.0 18.0 0.00 0.00 0.00 51 1019.3
20260901153103 83 172 11.0 17.0 0.00 0.00 0.00 52 1019.1
20260901151620 82 173 12.0 19.0 0.00 0.00 0.00 54 1019.4
20260901150107 81 169 10.0 19.0 0.00 0.00 0.00 56 1019.3
20260901144603 80 175 12.0 18.0 0.00 0.00 0.00 58 1019.1
20260901143113 79 167 10.0 19.0 0.00 0.00 0.00 59 1019.1
20260901141607 79 178 9.0 18.0 0.00 0.00 0.00 60 1019.1
20260901140109 78 157 11.0 17.0 0.00 0.00 0.00 61 1019.1
20260901134605 77 162 11.0 17.0 0.00 0.00 0.00 62 1019.1
20260901133103 77 145 11.0 17.0 0.00 0.00 0.00 62 1018.9
20260901131603 76 142 11.0 15.0 0.00 0.00 0.00 62 1018.8
20260901124559 75 148 9.0 14.0 0.00 0.00 0.00 62 1018.5
20260901123122 75 150 10.0 14.0 0.00 0.00 0.00 61 1018.5
20260901121609 76 152 11.0 16.0 0.00 0.00 0.00 60 1018.3
20260901114602 76 146 10.0 17.0 0.00 0.00 0.00 58 1018.2
20260901113108 76 139 9.0 13.0 0.00 0.00 0.00 58 1018.4
20260901111613 77 145 9.0 13.0 0.00 0.00 0.00 57 1018.5
20260901110114 77 153 10.0 13.0 0.00 0.00 0.00 56 1018.4
20260901104602 77 141 9.0 13.0 0.00 0.00 0.00 55 1018.3
20260901103116 78 143 10.0 14.0 0.00 0.00 0.00 54 1018.2
20260901101604 78 153 10.0 15.0 0.00 0.00 0.00 53 1018.1
20260901100115 79 149 10.0 19.0 0.00 0.00 0.00 52 1018.1
20260901094603 79 155 12.0 17.0 0.00 0.00 0.00 52 1018.2
20260901093112 79 146 10.0 15.0 0.00 0.00 0.00 52 1018.2
20260901091614 79 155 9.0 15.0 0.00 0.00 0.00 52 1018.1
20260901090104 80 169 10.0 16.0 0.00 0.00 0.00 51 1018.2
20260901084604 80 165 9.0 14.0 0.00 0.00 0.00 52 1018.2
20260901083106 80 160 9.0 15.0 0.00 0.00 0.00 51 1018.0
20260901081606 80 161 10.0 14.0 0.00 0.00 0.00 51 1018.0
20260901080104 80 155 8.0 16.0 0.00 0.00 0.00 51 1017.7
20260901074558 79 143 9.0 15.0 0.00 0.00 0.00 50 1017.8
20260901073107 79 141 10.0 15.0 0.00 0.00 0.00 49 1017.7
20260901071604 79 140 7.0 10.0 0.00 0.00 0.00 48 1017.8